GW7223 Weather Reports


time (UTC)temp
C
wind
direction
speed
KPH
gust
KPH
rain 1hr
cm
rain 24hr
cm
rain mn
cm
humidity
%
barometer
mb
20260905151957 25 305 22.5 0.0 0.00 0.00 0.00 63 1013.4
20260905151457 26 345 12.9 0.0 0.00 0.00 0.00 62 1013.4
20260905150957 25 316 20.9 0.0 0.00 0.00 0.00 62 1013.4
20260905150510 25 328 25.7 0.0 0.00 0.00 0.00 62 1013.3
20260905145956 25 281 11.3 0.0 0.00 0.00 0.00 63 1013.4
20260905145457 25 297 17.7 0.0 0.00 0.00 0.00 63 1013.4
20260905144955 25 295 17.7 0.0 0.00 0.00 0.00 63 1013.5
20260905144456 25 31 12.9 0.0 0.00 0.00 0.00 64 1013.5
20260905143956 24 313 9.7 0.0 0.00 0.00 0.00 64 1013.4
20260905143511 24 289 17.7 0.0 0.00 0.00 0.00 64 1013.5
20260905142956 24 321 12.9 0.0 0.00 0.00 0.00 64 1013.7
20260905142456 24 319 6.4 0.0 0.00 0.00 0.00 64 1013.6
20260905141955 23 334 9.7 0.0 0.00 0.00 0.00 65 1013.6
20260905141457 23 312 19.3 0.0 0.00 0.00 0.00 66 1013.6
20260905140957 23 354 17.7 0.0 0.00 0.00 0.00 67 1013.6
20260905140456 23 312 19.3 0.0 0.00 0.00 0.00 67 1013.7
20260905135955 23 354 12.9 0.0 0.00 0.00 0.00 68 1013.7
20260905135455 23 346 25.7 0.0 0.00 0.00 0.00 66 1013.7
20260905134957 23 352 16.1 0.0 0.00 0.00 0.00 66 1013.6
20260905134456 23 345 12.9 0.0 0.00 0.00 0.00 66 1013.6
20260905133955 23 74 4.8 0.0 0.00 0.00 0.00 68 1013.6
20260905133457 22 293 16.1 0.0 0.00 0.00 0.00 68 1013.6
20260905132955 22 8 16.1 0.0 0.00 0.00 0.00 69 1013.7
20260905132455 22 349 29.0 0.0 0.00 0.00 0.00 71 1013.8
20260905131956 21 38 11.3 0.0 0.00 0.00 0.00 72 1013.8
20260905131456 21 352 16.1 0.0 0.00 0.00 0.00 72 1013.8
20260905130955 21 339 9.7 0.0 0.00 0.00 0.00 73 1013.9
20260905130457 21 346 16.1 0.0 0.00 0.00 0.00 74 1013.9
20260905125957 21 347 20.9 0.0 0.00 0.00 0.00 74 1013.9
20260905125456 21 336 17.7 0.0 0.00 0.00 0.00 74 1014.1
20260905124956 21 333 9.7 0.0 0.00 0.00 0.00 74 1014.0
20260905124457 21 325 16.1 0.0 0.00 0.00 0.00 74 1014.0
20260905123957 20 346 11.3 0.0 0.00 0.00 0.00 74 1014.1
20260905123456 20 6 9.7 0.0 0.00 0.00 0.00 74 1014.0
20260905122957 20 339 16.1 0.0 0.00 0.00 0.00 74 1014.0
20260905122510 20 305 11.3 0.0 0.00 0.00 0.00 75 1014.0
20260905121957 20 345 12.9 0.0 0.00 0.00 0.00 75 1014.0
20260905121455 20 338 11.3 0.0 0.00 0.00 0.00 75 1014.0
20260905120957 20 2 6.4 0.0 0.00 0.00 0.00 76 1014.1
20260905120457 20 87 4.8 0.0 0.00 0.00 0.00 76 1014.0
20260905115956 20 4 8.0 0.0 0.00 0.00 0.00 76 1014.0
20260905115510 20 350 9.7 0.0 0.00 0.00 0.00 75 1013.9
20260905114957 21 0 6.4 0.0 0.00 0.00 0.00 75 1013.8
20260905114456 21 360 8.0 0.0 0.00 0.00 0.00 75 1013.8
20260905113956 21 49 4.8 0.0 0.00 0.00 0.00 76 1013.8
20260905113457 21 358 9.7 0.0 0.00 0.00 0.00 75 1013.8
20260905112955 21 29 3.2 0.0 0.00 0.00 0.00 75 1013.8
20260905112455 21 36 4.8 0.0 0.00 0.00 0.00 75 1013.7
20260905111955 21 347 9.7 0.0 0.00 0.00 0.00 76 1013.6
20260905111455 21 39 6.4 0.0 0.00 0.00 0.00 76 1013.6
20260905110956 21 353 6.4 0.0 0.00 0.00 0.00 76 1013.5
20260905110456 21 308 9.7 0.0 0.00 0.00 0.00 76 1013.4
20260905105955 21 28 4.8 0.0 0.00 0.00 0.00 75 1013.4
20260905105455 21 350 6.4 0.0 0.00 0.00 0.00 74 1013.3
20260905104955 21 272 3.2 0.0 0.00 0.00 0.00 74 1013.2
20260905104510 21 13 3.2 0.0 0.00 0.00 0.00 74 1013.2
20260905103956 21 19 3.2 0.0 0.00 0.00 0.00 74 1013.2
20260905103457 21 51 4.8 0.0 0.00 0.00 0.00 74 1013.0
20260905102955 21 358 11.3 0.0 0.00 0.00 0.00 74 1013.0
20260905102456 21 338 12.9 0.0 0.00 0.00 0.00 76 1012.9
20260905101955 21 295 4.8 0.0 0.00 0.00 0.00 77 1012.8
20260905101457 21 355 16.1 0.0 0.00 0.00 0.00 77 1012.9
20260905101010 21 360 12.9 0.0 0.00 0.00 0.00 77 1012.9
20260905100455 21 24 9.7 0.0 0.00 0.00 0.00 76 1012.8
20260905095956 21 218 3.2 0.0 0.00 0.00 0.00 76 1012.6
20260905095455 22 1 16.1 0.0 0.00 0.00 0.00 76 1012.6
20260905094957 22 351 14.5 0.0 0.00 0.00 0.00 75 1012.6
20260905094455 22 10 9.7 0.0 0.00 0.00 0.00 75 1012.5
20260905093955 22 326 8.0 0.0 0.00 0.00 0.00 75 1012.4
20260905093455 22 306 16.1 0.0 0.00 0.00 0.00 75 1012.3
20260905092957 22 336 20.9 0.0 0.00 0.00 0.00 76 1012.3
20260905092457 22 330 11.3 0.0 0.00 0.00 0.00 76 1012.3
20260905091955 22 357 12.9 0.0 0.00 0.00 0.00 77 1012.2
20260905091510 22 23 9.7 0.0 0.00 0.00 0.00 78 1012.2
20260905090955 22 352 14.5 0.0 0.00 0.00 0.00 79 1012.2
20260905090456 22 325 9.7 0.0 0.00 0.00 0.00 80 1012.1
20260905085956 22 147 3.2 0.0 0.00 0.00 0.00 80 1012.2
20260905085511 22 1 6.4 0.0 0.00 0.00 0.00 80 1012.2
20260905084955 22 350 14.5 0.0 0.00 0.00 0.00 80 1012.4
20260905084456 22 7 17.7 0.0 0.00 0.00 0.00 81 1012.5
20260905083957 22 334 6.4 0.0 0.00 0.00 0.00 81 1012.5
20260905083455 22 346 6.4 0.0 0.00 0.00 0.00 81 1012.6
20260905083010 22 18 3.2 0.0 0.00 0.00 0.00 80 1012.6
20260905082456 22 10 6.4 0.0 0.00 0.00 0.00 80 1012.7
20260905081956 22 321 6.4 0.0 0.00 0.00 0.00 79 1012.9
20260905081456 22 310 6.4 0.0 0.00 0.00 0.00 79 1013.0
20260905080955 22 257 17.7 0.0 0.00 0.00 0.00 78 1013.0
20260905080457 22 353 9.7 0.0 0.00 0.00 0.00 78 1013.1
20260905075955 22 325 9.7 0.0 0.00 0.00 0.00 79 1013.2
20260905075456 22 353 16.1 0.0 0.00 0.00 0.00 79 1013.3
20260905075012 22 338 4.8 0.0 0.00 0.00 0.00 79 1013.4
20260905074455 22 332 16.1 0.0 0.00 0.00 0.00 79 1013.4
20260905073955 22 305 16.1 0.0 0.00 0.00 0.00 80 1013.4
20260905073511 22 338 14.5 0.0 0.00 0.00 0.00 80 1013.6
20260905072956 22 314 6.4 0.0 0.00 0.00 0.00 80 1013.7
20260905072456 22 344 20.9 0.0 0.00 0.00 0.00 80 1013.8
20260905071955 22 56 8.0 0.0 0.00 0.00 0.00 80 1013.9
20260905071455 22 332 16.1 0.0 0.00 0.00 0.00 80 1014.0
20260905070956 22 33 20.9 0.0 0.00 0.00 0.00 80 1014.2
20260905070455 22 26 16.1 0.0 0.00 0.00 0.00 80 1014.3
20260905065956 22 324 12.9 0.0 0.00 0.00 0.00 80 1014.5
20260905065456 22 330 17.7 0.0 0.00 0.00 0.00 80 1014.6
20260905064955 22 341 16.1 0.0 0.00 0.00 0.00 80 1014.6
20260905064455 22 331 11.3 0.0 0.00 0.00 0.00 80 1014.8
20260905063956 22 320 12.9 0.0 0.00 0.00 0.00 80 1014.9
20260905063455 22 351 9.7 0.0 0.00 0.00 0.00 80 1015.0
20260905063012 22 330 11.3 0.0 0.00 0.00 0.00 80 1015.1
20260905062510 22 327 14.5 0.0 0.00 0.00 0.00 80 1015.2
20260905061955 22 38 8.0 0.0 0.00 0.00 0.00 80 1015.2
20260905061455 22 353 14.5 0.0 0.00 0.00 0.00 80 1015.2
20260905060957 22 358 14.5 0.0 0.00 0.00 0.00 80 1015.4
20260905060457 22 297 17.7 0.0 0.00 0.00 0.00 80 1015.4
20260905055957 22 338 11.3 0.0 0.00 0.00 0.00 80 1015.4
20260905055456 22 21 16.1 0.0 0.00 0.00 0.00 81 1015.4
20260905054956 22 358 9.7 0.0 0.00 0.00 0.00 81 1015.5
20260905054457 22 319 11.3 0.0 0.00 0.00 0.00 81 1015.5
20260905053957 22 27 3.2 0.0 0.00 0.00 0.00 80 1015.6
20260905053455 23 345 11.3 0.0 0.00 0.00 0.00 80 1015.7
20260905052955 23 16 6.4 0.0 0.00 0.00 0.00 80 1015.7
20260905052457 23 352 8.0 0.0 0.00 0.00 0.00 80 1015.8
20260905052003 23 23 9.7 0.0 0.00 0.00 0.00 80 1015.9
20260905051457 23 166 1.6 0.0 0.00 0.00 0.00 80 1016.0
20260905050956 23 343 9.7 0.0 0.00 0.00 0.00 80 1016.1
20260905050456 23 356 9.7 0.0 0.00 0.00 0.00 81 1016.1
20260905045955 23 89 4.8 0.0 0.00 0.00 0.00 81 1016.2
20260905045510 23 29 8.0 0.0 0.00 0.00 0.00 82 1016.2
20260905044957 23 309 4.8 0.0 0.00 0.00 0.00 82 1016.2
20260905044455 23 337 3.2 0.0 0.00 0.00 0.00 82 1016.1
20260905043957 23 302 11.3 0.0 0.00 0.00 0.00 82 1016.2
20260905043511 23 272 11.3 0.0 0.00 0.00 0.00 82 1016.3
20260905042956 23 322 9.7 0.0 0.00 0.00 0.00 82 1016.3
20260905042455 23 301 12.9 0.0 0.00 0.00 0.00 82 1016.4
20260905041955 23 242 4.8 0.0 0.00 0.00 0.00 81 1016.4
20260905041456 23 291 16.1 0.0 0.00 0.00 0.00 81 1016.4
20260905040955 23 330 4.8 0.0 0.00 0.00 0.00 78 1016.4
20260905040455 23 360 3.2 0.0 0.00 0.00 0.00 78 1016.4
20260905035955 23 60 4.8 0.0 0.00 0.00 0.00 78 1016.4
20260905035455 23 0 8.0 0.0 0.00 0.00 0.00 78 1016.3
20260905035012 23 20 4.8 0.0 0.00 0.00 0.00 78 1016.3
20260905034511 24 70 4.8 0.0 0.00 0.00 0.00 78 1016.2
20260905033957 23 126 0.0 0.0 0.00 0.00 0.00 77 1016.2
20260905033510 24 343 6.4 0.0 0.00 0.00 0.00 76 1016.1
20260905032955 24 337 4.8 0.0 0.00 0.00 0.00 77 1016.0
20260905032456 24 97 4.8 0.0 0.00 0.00 0.00 78 1016.0
20260905032012 24 37 4.8 0.0 0.00 0.00 0.00 78 1016.0
20260905031455 24 145 1.6 0.0 0.00 0.00 0.00 78 1015.8
20260905030957 24 95 4.8 0.0 0.00 0.00 0.00 77 1015.8
20260905030455 23 145 3.2 0.0 0.00 0.00 0.00 77 1015.8
20260905025956 23 76 4.8 0.0 0.00 0.00 0.00 76 1015.7
20260905025456 23 5 3.2 0.0 0.00 0.00 0.00 77 1015.8
20260905024955 23 359 6.4 0.0 0.00 0.00 0.00 77 1015.8
20260905024455 23 2 4.8 0.0 0.00 0.00 0.00 77 1015.6
20260905023957 23 357 19.3 0.0 0.00 0.00 0.00 76 1015.6
20260905023456 24 152 1.6 0.0 0.00 0.00 0.00 76 1015.5
20260905022957 24 35 3.2 0.0 0.00 0.00 0.00 76 1015.4
20260905022457 24 95 6.4 0.0 0.00 0.00 0.00 78 1015.2
20260905021955 23 37 4.8 0.0 0.00 0.00 0.00 78 1015.1
20260905021457 23 11 4.8 0.0 0.00 0.00 0.00 76 1015.0
20260905020957 24 14 9.7 0.0 0.00 0.00 0.00 76 1015.0
20260905020455 24 32 3.2 0.0 0.00 0.00 0.00 75 1014.9
20260905020011 24 35 3.2 0.0 0.00 0.00 0.00 74 1014.7
20260905015455 24 161 4.8 0.0 0.00 0.00 0.00 73 1014.6
20260905014955 24 133 4.8 0.0 0.00 0.00 0.00 72 1014.6
20260905014511 24 66 4.8 0.0 0.00 0.00 0.00 71 1014.6
20260905014010 24 89 1.6 0.0 0.00 0.00 0.00 70 1014.4
20260905013457 25 13 6.4 0.0 0.00 0.00 0.00 69 1014.2
20260905013011 25 347 12.9 0.0 0.00 0.00 0.00 65 1014.1
20260905012455 25 33 9.7 0.0 0.00 0.00 0.00 64 1014.0
20260905011956 25 345 11.3 0.0 0.00 0.00 0.00 63 1013.9
20260905011455 26 343 16.1 0.0 0.00 0.00 0.00 60 1013.8
20260905010957 28 351 9.7 0.0 0.00 0.00 0.00 54 1014.0
20260905010510 31 11 4.8 0.0 0.00 0.00 0.00 49 1013.8
20260905004957 32 107 0.0 0.0 0.13 0.13 0.00 48 1014.1
20260905004457 31 107 0.0 0.0 0.13 0.13 0.00 48 1014.0
20260905004012 31 107 0.0 0.0 0.13 0.13 0.00 48 1013.8
20260905003455 31 107 0.0 0.0 0.13 0.13 0.00 49 1013.6
20260905003011 31 107 0.0 0.0 0.13 0.13 0.00 49 1013.6
20260905002456 31 107 0.0 0.0 0.10 0.10 0.00 50 1013.4
20260905001956 31 107 0.0 0.0 0.10 0.10 0.00 51 1013.3
20260905001455 31 107 0.0 0.0 0.10 0.10 0.00 51 1013.4
20260904231456 29 104 0.0 0.0 0.00 0.00 0.00 57 1012.3
20260904230957 28 104 0.0 0.0 0.00 0.00 0.00 59 1012.5
20260904230456 28 104 0.0 0.0 0.00 0.00 0.00 60 1012.6